Location: The C. Gantt Observatory
(33.6981°N, 81.6836°W)
Time: 17:04:44
(UTC-04:00)

Iridium 30 - Visible Passes

Search period start: 23 August 2016 00:00
Search period end: 02 September 2016 00:00
Orbit: 776 x 779 km, 86.4° (Epoch: 23 August)

Date Brightness Start Highest point End Pass type
(mag) Time Alt. Az. Time Alt. Az. Time Alt. Az.
24 Aug 7.2 06:07:53 10° SSE 06:12:38 37° E 06:17:25 10° NNE visible
25 Aug 8.3 05:35:42 10° SE 05:39:22 20° E 05:43:01 10° NE visible
27 Aug 6.3 06:07:35 10° SSE 06:12:40 57° E 06:17:46 10° N visible
28 Aug 7.6 05:34:53 10° SE 05:39:19 29° E 05:43:45 10° NNE visible
29 Aug 8.4 05:03:12 10° ESE 05:06:04 15° E 05:08:56 10° NE visible
30 Aug 5.6 06:07:32 10° S 06:12:44 85° E 06:17:58 10° N visible
31 Aug 6.8 05:34:25 10° SSE 05:39:19 43° E 05:44:14 10° NNE visible
01 Sep 7.9 05:02:02 10° SE 05:06:00 22° E 05:09:58 10° NNE visible
